Time,TemperatureF,DewpointF,PressureIn,WindDirection,WindDirectionDegrees,WindSpeedMPH,WindSpeedGustMPH,Humidity,HourlyPrecipIn,Conditions,Clouds,dailyrainin,SoftwareType,DateUTC
2013-10-12 00:03:00,71.1,63.9,29.92,North,-999,0.0,0.0,78,0.00,,,-99.99,WeatherLink 5.4,2013-10-12 04:03:00,
2013-10-12 00:05:00,70.8,64.0,29.92,North,-999,0.0,0.0,79,0.00,,,-99.99,WeatherLink 5.4,2013-10-12 04:05:00,
2013-10-12 00:08:00,70.9,63.7,29.92,North,-999,0.0,0.0,78,0.00,,,-99.99,WeatherLink 5.4,2013-10-12 04:08:00,
2013-10-12 00:10:00,70.6,64.1,29.92,North,-999,0.0,0.0,80,0.00,,,-99.99,WeatherLink 5.4,2013-10-12 04:10:00,
2013-10-12 00:13:00,70.8,64.0,29.92,North,-999,0.0,0.0,79,0.00,,,-99.99,WeatherLink 5.4,2013-10-12 04:13:00,
2013-10-12 00:15:00,70.4,63.9,29.92,North,-999,0.0,0.0,80,0.00,,,-99.99,WeatherLink 5.4,2013-10-12 04:15:00,
2013-10-12 00:18:00,70.6,64.1,29.92,North,-999,0.0,0.0,80,0.00,,,-99.99,WeatherLink 5.4,2013-10-12 04:18:00,
2013-10-12 00:20:00,70.4,64.3,29.92,North,-999,0.0,0.0,81,0.00,,,-99.99,WeatherLink 5.4,2013-10-12 04:20:00,
2013-10-12 00:23:00,70.4,63.9,29.92,North,-999,0.0,0.0,80,0.00,,,-99.99,WeatherLink 5.4,2013-10-12 04:23:00,
2013-10-12 00:25:00,70.4,64.3,29.92,North,-999,0.0,0.0,81,0.00,,,-99.99,WeatherLink 5.4,2013-10-12 04:25:00,
2013-10-12 00:30:00,70.4,64.3,29.92,North,-999,0.0,0.0,81,0.00,,,-99.99,WeatherLink 5.4,2013-10-12 04:30:00,
2013-10-12 00:33:00,70.4,64.3,29.92,North,-999,0.0,0.0,81,0.00,,,-99.99,WeatherLink 5.4,2013-10-12 04:33:00,
2013-10-12 00:35:00,70.8,64.3,29.92,North,-999,0.0,0.0,80,0.00,,,-99.99,WeatherLink 5.4,2013-10-12 04:35:00,
2013-10-12 00:40:00,70.9,64.4,29.92,North,-999,0.0,0.0,80,0.00,,,-99.99,WeatherLink 5.4,2013-10-12 04:40:00,
2013-10-12 00:43:00,70.8,64.3,29.92,North,-999,0.0,0.0,80,0.00,,,-99.99,WeatherLink 5.4,2013-10-12 04:43:00,
2013-10-12 00:45:00,70.8,64.3,29.92,North,-999,0.0,0.0,80,0.00,,,-99.99,WeatherLink 5.4,2013-10-12 04:45:00,
2013-10-12 00:48:00,70.9,64.4,29.92,North,-999,0.0,0.0,80,0.00,,,-99.99,WeatherLink 5.4,2013-10-12 04:48:00,
2013-10-12 00:50:00,70.8,64.0,29.92,North,-999,0.0,0.0,79,0.00,,,-99.99,WeatherLink 5.4,2013-10-12 04:50:00,
2013-10-12 00:55:00,70.8,63.6,29.92,North,-999,0.0,0.0,78,0.00,,,-99.99,WeatherLink 5.4,2013-10-12 04:55:00,
2013-10-12 00:58:00,70.8,64.0,29.92,North,-999,0.0,0.0,79,0.00,,,-99.99,WeatherLink 5.4,2013-10-12 04:58:00,
2013-10-12 01:00:00,70.7,63.5,29.91,North,-999,0.0,0.0,78,0.00,,,-99.99,WeatherLink 5.4,2013-10-12 05:00:00,
2013-10-12 01:05:00,70.6,63.8,29.91,North,-999,0.0,0.0,79,0.00,,,-99.99,WeatherLink 5.4,2013-10-12 05:05:00,
2013-10-12 01:08:00,70.7,63.5,29.91,North,-999,0.0,0.0,78,0.00,,,-99.99,WeatherLink 5.4,2013-10-12 05:08:00,
2013-10-12 01:10:00,70.4,63.6,29.91,North,-999,0.0,0.0,79,0.00,,,-99.99,WeatherLink 5.4,2013-10-12 05:10:00,
2013-10-12 01:15:00,70.3,63.8,29.91,North,-999,0.0,0.0,80,0.00,,,-99.99,WeatherLink 5.4,2013-10-12 05:15:00,
2013-10-12 01:18:00,70.4,63.6,29.91,North,-999,0.0,0.0,79,0.00,,,-99.99,WeatherLink 5.4,2013-10-12 05:18:00,
2013-10-12 01:20:00,70.3,63.8,29.91,North,-999,0.0,0.0,80,0.00,,,-99.99,WeatherLink 5.4,2013-10-12 05:20:00,
2013-10-12 01:25:00,70.1,63.6,29.91,North,-999,0.0,0.0,80,0.00,,,-99.99,WeatherLink 5.4,2013-10-12 05:25:00,
2013-10-12 01:28:00,70.3,63.8,29.91,North,-999,0.0,0.0,80,0.00,,,-99.99,WeatherLink 5.4,2013-10-12 05:28:00,
2013-10-12 01:30:00,70.1,64.0,29.91,North,-999,0.0,0.0,81,0.00,,,-99.99,WeatherLink 5.4,2013-10-12 05:30:00,
2013-10-12 01:35:00,70.1,64.0,29.91,North,-999,0.0,0.0,81,0.00,,,-99.99,WeatherLink 5.4,2013-10-12 05:35:00,
2013-10-12 01:38:00,70.1,64.0,29.91,North,-999,0.0,0.0,81,0.00,,,-99.99,WeatherLink 5.4,2013-10-12 05:38:00,
2013-10-12 01:40:00,70.1,64.0,29.91,North,-999,0.0,0.0,81,0.00,,,-99.99,WeatherLink 5.4,2013-10-12 05:40:00,
2013-10-12 01:45:00,70.1,64.0,29.91,North,-999,0.0,0.0,81,0.00,,,-99.99,WeatherLink 5.4,2013-10-12 05:45:00,
2013-10-12 01:48:00,70.1,64.0,29.91,North,-999,0.0,0.0,81,0.00,,,-99.99,WeatherLink 5.4,2013-10-12 05:48:00,
2013-10-12 01:50:00,70.1,64.0,29.91,North,-999,0.0,0.0,81,0.00,,,-99.99,WeatherLink 5.4,2013-10-12 05:50:00,
2013-10-12 01:53:00,70.1,64.0,29.91,North,-999,0.0,0.0,81,0.00,,,-99.99,WeatherLink 5.4,2013-10-12 05:53:00,
2013-10-12 01:55:00,70.1,64.0,29.91,North,-999,0.0,0.0,81,0.00,,,-99.99,WeatherLink 5.4,2013-10-12 05:55:00,
2013-10-12 02:00:00,70.1,64.0,29.91,North,-999,0.0,0.0,81,0.00,,,-99.99,WeatherLink 5.4,2013-10-12 06:00:00,
2013-10-12 02:03:00,70.1,64.0,29.91,North,-999,0.0,0.0,81,0.00,,,-99.99,WeatherLink 5.4,2013-10-12 06:03:00,
2013-10-12 02:05:00,70.1,64.3,29.91,North,-999,0.0,0.0,82,0.00,,,-99.99,WeatherLink 5.4,2013-10-12 06:05:00,
2013-10-12 02:10:00,70.1,64.3,29.91,North,-999,0.0,0.0,82,0.00,,,-99.99,WeatherLink 5.4,2013-10-12 06:10:00,
2013-10-12 02:13:00,70.1,64.3,29.91,North,-999,0.0,0.0,82,0.00,,,-99.99,WeatherLink 5.4,2013-10-12 06:13:00,
2013-10-12 02:15:00,69.9,64.5,29.90,North,-999,0.0,0.0,83,0.00,,,-99.99,WeatherLink 5.4,2013-10-12 06:15:00,
2013-10-12 02:20:00,69.8,64.7,29.90,North,-999,0.0,0.0,84,0.00,,,-99.99,WeatherLink 5.4,2013-10-12 06:20:00,
2013-10-12 02:23:00,69.9,64.5,29.90,North,-999,0.0,0.0,83,0.00,,,-99.99,WeatherLink 5.4,2013-10-12 06:23:00,
2013-10-12 02:25:00,69.6,64.9,29.90,North,-999,0.0,0.0,85,0.00,,,-99.99,WeatherLink 5.4,2013-10-12 06:25:00,
2013-10-12 02:28:00,69.8,64.7,29.90,North,-999,0.0,0.0,84,0.00,,,-99.99,WeatherLink 5.4,2013-10-12 06:28:00,
2013-10-12 02:30:00,69.4,65.0,29.90,North,-999,0.0,0.0,86,0.00,,,-99.99,WeatherLink 5.4,2013-10-12 06:30:00,
2013-10-12 02:35:00,69.3,64.9,29.90,North,-999,0.0,0.0,86,0.00,,,-99.99,WeatherLink 5.4,2013-10-12 06:35:00,
2013-10-12 02:38:00,69.4,65.0,29.90,North,-999,0.0,0.0,86,0.00,,,-99.99,WeatherLink 5.4,2013-10-12 06:38:00,
2013-10-12 02:40:00,69.2,65.2,29.90,North,-999,0.0,0.0,87,0.00,,,-99.99,WeatherLink 5.4,2013-10-12 06:40:00,
2013-10-12 02:45:00,69.1,65.4,29.90,North,-999,0.0,0.0,88,0.00,,,-99.99,WeatherLink 5.4,2013-10-12 06:45:00,
2013-10-12 02:48:00,69.2,65.2,29.90,North,-999,0.0,0.0,87,0.00,,,-99.99,WeatherLink 5.4,2013-10-12 06:48:00,
2013-10-12 02:50:00,69.1,65.4,29.90,North,-999,0.0,0.0,88,0.00,,,-99.99,WeatherLink 5.4,2013-10-12 06:50:00,
2013-10-12 02:55:00,69.1,65.7,29.90,North,-999,0.0,0.0,89,0.00,,,-99.99,WeatherLink 5.4,2013-10-12 06:55:00,
2013-10-12 02:58:00,69.1,65.4,29.90,North,-999,0.0,0.0,88,0.00,,,-99.99,WeatherLink 5.4,2013-10-12 06:58:00,
2013-10-12 03:00:00,69.1,65.7,29.90,North,-999,0.0,0.0,89,0.00,,,-99.99,WeatherLink 5.4,2013-10-12 07:00:00,
2013-10-12 03:03:00,69.1,65.7,29.90,North,-999,0.0,0.0,89,0.00,,,-99.99,WeatherLink 5.4,2013-10-12 07:03:00,
2013-10-12 03:05:00,69.1,66.0,29.90,North,-999,0.0,0.0,90,0.00,,,-99.99,WeatherLink 5.4,2013-10-12 07:05:00,
2013-10-12 03:08:00,69.1,65.7,29.90,North,-999,0.0,0.0,89,0.00,,,-99.99,WeatherLink 5.4,2013-10-12 07:08:00,
2013-10-12 03:10:00,69.1,66.0,29.90,North,-999,0.0,0.0,90,0.00,,,-99.99,WeatherLink 5.4,2013-10-12 07:10:00,
2013-10-12 03:15:00,69.1,66.0,29.90,North,-999,0.0,0.0,90,0.00,,,-99.99,WeatherLink 5.4,2013-10-12 07:15:00,
2013-10-12 03:18:00,69.1,66.0,29.90,North,-999,0.0,0.0,90,0.00,,,-99.99,WeatherLink 5.4,2013-10-12 07:18:00,
2013-10-12 03:20:00,69.2,66.1,29.90,North,-999,0.0,0.0,90,0.00,,,-99.99,WeatherLink 5.4,2013-10-12 07:20:00,
2013-10-12 03:23:00,69.1,66.0,29.90,North,-999,0.0,0.0,90,0.00,,,-99.99,WeatherLink 5.4,2013-10-12 07:23:00,
2013-10-12 03:25:00,69.3,66.2,29.90,North,-999,0.0,0.0,90,0.00,,,-99.99,WeatherLink 5.4,2013-10-12 07:25:00,
2013-10-12 03:30:00,69.5,66.4,29.90,North,-999,0.0,0.0,90,0.00,,,-99.99,WeatherLink 5.4,2013-10-12 07:30:00,
2013-10-12 03:33:00,69.3,66.2,29.90,North,-999,0.0,0.0,90,0.00,,,-99.99,WeatherLink 5.4,2013-10-12 07:33:00,
2013-10-12 03:35:00,69.8,66.7,29.90,North,-999,0.0,0.0,90,0.00,,,-99.99,WeatherLink 5.4,2013-10-12 07:35:00,
2013-10-12 03:40:00,69.9,66.5,29.90,North,-999,0.0,0.0,89,0.00,,,-99.99,WeatherLink 5.4,2013-10-12 07:40:00,
2013-10-12 03:43:00,69.8,66.7,29.90,North,-999,0.0,0.0,90,0.00,,,-99.99,WeatherLink 5.4,2013-10-12 07:43:00,
2013-10-12 03:45:00,69.9,66.5,29.90,North,-999,0.0,0.0,89,0.00,,,-99.99,WeatherLink 5.4,2013-10-12 07:45:00,
2013-10-12 03:48:00,69.9,66.5,29.90,North,-999,0.0,0.0,89,0.00,,,-99.99,WeatherLink 5.4,2013-10-12 07:48:00,
2013-10-12 03:50:00,69.9,66.5,29.90,North,-999,0.0,0.0,89,0.00,,,-99.99,WeatherLink 5.4,2013-10-12 07:50:00,
2013-10-12 03:55:00,70.2,66.8,29.90,North,-999,0.0,0.0,89,0.00,,,-99.99,WeatherLink 5.4,2013-10-12 07:55:00,
2013-10-12 03:58:00,69.9,66.5,29.90,North,-999,0.0,0.0,89,0.00,,,-99.99,WeatherLink 5.4,2013-10-12 07:58:00,
2013-10-12 04:00:00,70.3,66.9,29.90,North,-999,0.0,0.0,89,0.00,,,-99.99,WeatherLink 5.4,2013-10-12 08:00:00,
2013-10-12 04:03:00,70.2,66.8,29.90,North,-999,0.0,0.0,89,0.00,,,-99.99,WeatherLink 5.4,2013-10-12 08:03:00,
2013-10-12 04:05:00,70.2,66.8,29.90,North,-999,0.0,0.0,89,0.00,,,-99.99,WeatherLink 5.4,2013-10-12 08:05:00,
2013-10-12 04:08:00,70.3,66.9,29.90,North,-999,0.0,0.0,89,0.00,,,-99.99,WeatherLink 5.4,2013-10-12 08:08:00,
2013-10-12 04:10:00,70.0,66.9,29.90,North,-999,0.0,0.0,90,0.00,,,-99.99,WeatherLink 5.4,2013-10-12 08:10:00,
2013-10-12 04:15:00,69.8,66.7,29.90,North,-999,0.0,0.0,90,0.00,,,-99.99,WeatherLink 5.4,2013-10-12 08:15:00,
2013-10-12 04:18:00,70.0,66.9,29.90,North,-999,0.0,0.0,90,0.00,,,-99.99,WeatherLink 5.4,2013-10-12 08:18:00,
2013-10-12 04:20:00,69.6,66.5,29.90,North,-999,0.0,0.0,90,0.00,,,-99.99,WeatherLink 5.4,2013-10-12 08:20:00,
2013-10-12 04:25:00,69.4,66.7,29.90,North,-999,0.0,0.0,91,0.00,,,-99.99,WeatherLink 5.4,2013-10-12 08:25:00,
2013-10-12 04:28:00,69.6,66.5,29.90,North,-999,0.0,0.0,90,0.00,,,-99.99,WeatherLink 5.4,2013-10-12 08:28:00,
2013-10-12 04:30:00,69.5,66.8,29.90,North,-999,0.0,0.0,91,0.00,,,-99.99,WeatherLink 5.4,2013-10-12 08:30:00,
2013-10-12 04:33:00,69.4,66.7,29.90,North,-999,0.0,0.0,91,0.00,,,-99.99,WeatherLink 5.4,2013-10-12 08:33:00,
2013-10-12 04:35:00,69.7,67.0,29.90,North,-999,0.0,0.0,91,0.00,,,-99.99,WeatherLink 5.4,2013-10-12 08:35:00,
2013-10-12 04:40:00,69.9,66.8,29.90,North,-999,0.0,0.0,90,0.00,,,-99.99,WeatherLink 5.4,2013-10-12 08:40:00,
2013-10-12 04:43:00,69.7,67.0,29.90,North,-999,0.0,0.0,91,0.00,,,-99.99,WeatherLink 5.4,2013-10-12 08:43:00,
2013-10-12 04:45:00,69.9,66.8,29.90,North,-999,0.0,0.0,90,0.00,,,-99.99,WeatherLink 5.4,2013-10-12 08:45:00,
2013-10-12 04:50:00,69.8,66.7,29.90,North,-999,0.0,0.0,90,0.00,,,-99.99,WeatherLink 5.4,2013-10-12 08:50:00,
2013-10-12 04:53:00,69.9,66.8,29.90,North,-999,0.0,0.0,90,0.00,,,-99.99,WeatherLink 5.4,2013-10-12 08:53:00,
2013-10-12 04:55:00,69.8,66.7,29.90,North,-999,0.0,0.0,90,0.00,,,-99.99,WeatherLink 5.4,2013-10-12 08:55:00,
2013-10-12 04:58:00,69.8,66.7,29.90,North,-999,0.0,0.0,90,0.00,,,-99.99,WeatherLink 5.4,2013-10-12 08:58:00,
2013-10-12 05:00:00,70.2,67.1,29.91,North,-999,0.0,0.0,90,0.00,,,-99.99,WeatherLink 5.4,2013-10-12 09:00:00,
2013-10-12 05:03:00,69.8,66.7,29.90,North,-999,0.0,0.0,90,0.00,,,-99.99,WeatherLink 5.4,2013-10-12 09:03:00,
2013-10-12 05:05:00,70.4,67.3,29.91,North,-999,0.0,0.0,90,0.00,,,-99.99,WeatherLink 5.4,2013-10-12 09:05:00,
2013-10-12 05:10:00,70.6,67.5,29.91,North,-999,0.0,0.0,90,0.00,,,-99.99,WeatherLink 5.4,2013-10-12 09:10:00,
2013-10-12 05:13:00,70.4,67.3,29.91,North,-999,0.0,0.0,90,0.00,,,-99.99,WeatherLink 5.4,2013-10-12 09:13:00,
2013-10-12 05:15:00,70.8,67.4,29.91,North,-999,0.0,0.0,89,0.00,,,-99.99,WeatherLink 5.4,2013-10-12 09:15:00,
2013-10-12 05:18:00,70.6,67.5,29.91,North,-999,0.0,0.0,90,0.00,,,-99.99,WeatherLink 5.4,2013-10-12 09:18:00,
2013-10-12 05:20:00,70.8,67.4,29.91,North,-999,0.0,0.0,89,0.00,,,-99.99,WeatherLink 5.4,2013-10-12 09:20:00,
2013-10-12 05:25:00,70.9,67.5,29.91,North,-999,0.0,0.0,89,0.00,,,-99.99,WeatherLink 5.4,2013-10-12 09:25:00,
2013-10-12 05:28:00,70.8,67.4,29.91,North,-999,0.0,0.0,89,0.00,,,-99.99,WeatherLink 5.4,2013-10-12 09:28:00,
2013-10-12 05:30:00,70.9,67.5,29.91,North,-999,0.0,0.0,89,0.00,,,-99.99,WeatherLink 5.4,2013-10-12 09:30:00,
2013-10-12 05:35:00,70.9,67.5,29.91,North,-999,0.0,0.0,89,0.00,,,-99.99,WeatherLink 5.4,2013-10-12 09:35:00,
2013-10-12 05:38:00,70.9,67.5,29.91,North,-999,0.0,0.0,89,0.00,,,-99.99,WeatherLink 5.4,2013-10-12 09:38:00,
2013-10-12 05:40:00,70.9,67.5,29.91,North,-999,0.0,0.0,89,0.00,,,-99.99,WeatherLink 5.4,2013-10-12 09:40:00,
2013-10-12 05:45:00,70.9,67.5,29.92,North,-999,0.0,0.0,89,0.00,,,-99.99,WeatherLink 5.4,2013-10-12 09:45:00,
2013-10-12 05:48:00,70.9,67.5,29.91,North,-999,0.0,0.0,89,0.00,,,-99.99,WeatherLink 5.4,2013-10-12 09:48:00,
2013-10-12 05:50:00,70.9,67.5,29.92,North,-999,0.0,0.0,89,0.00,,,-99.99,WeatherLink 5.4,2013-10-12 09:50:00,
2013-10-12 05:53:00,70.9,67.5,29.92,North,-999,0.0,0.0,89,0.00,,,-99.99,WeatherLink 5.4,2013-10-12 09:53:00,
2013-10-12 05:55:00,70.8,67.4,29.92,North,-999,0.0,0.0,89,0.00,,,-99.99,WeatherLink 5.4,2013-10-12 09:55:00,
2013-10-12 06:00:00,70.8,67.4,29.92,North,-999,0.0,0.0,89,0.00,,,-99.99,WeatherLink 5.4,2013-10-12 10:00:00,
2013-10-12 06:03:00,70.8,67.4,29.92,North,-999,0.0,0.0,89,0.00,,,-99.99,WeatherLink 5.4,2013-10-12 10:03:00,
2013-10-12 06:05:00,70.6,67.2,29.92,North,-999,0.0,0.0,89,0.00,,,-99.99,WeatherLink 5.4,2013-10-12 10:05:00,
2013-10-12 06:10:00,70.4,67.3,29.92,North,-999,0.0,0.0,90,0.00,,,-99.99,WeatherLink 5.4,2013-10-12 10:10:00,
2013-10-12 06:13:00,70.6,67.2,29.92,North,-999,0.0,0.0,89,0.00,,,-99.99,WeatherLink 5.4,2013-10-12 10:13:00,
2013-10-12 06:15:00,70.3,67.2,29.92,North,-999,0.0,0.0,90,0.00,,,-99.99,WeatherLink 5.4,2013-10-12 10:15:00,
2013-10-12 06:20:00,70.3,67.2,29.92,North,-999,0.0,0.0,90,0.00,,,-99.99,WeatherLink 5.4,2013-10-12 10:20:00,
2013-10-12 06:23:00,70.3,67.2,29.92,North,-999,0.0,0.0,90,0.00,,,-99.99,WeatherLink 5.4,2013-10-12 10:23:00,
2013-10-12 06:25:00,70.1,67.0,29.92,North,-999,0.0,0.0,90,0.00,,,-99.99,WeatherLink 5.4,2013-10-12 10:25:00,
2013-10-12 06:30:00,69.9,67.2,29.93,North,-999,0.0,0.0,91,0.00,,,-99.99,WeatherLink 5.4,2013-10-12 10:30:00,
2013-10-12 06:33:00,70.1,67.0,29.92,North,-999,0.0,0.0,90,0.00,,,-99.99,WeatherLink 5.4,2013-10-12 10:33:00,
2013-10-12 06:35:00,69.9,67.2,29.93,North,-999,0.0,0.0,91,0.00,,,-99.99,WeatherLink 5.4,2013-10-12 10:35:00,
2013-10-12 06:38:00,69.9,67.2,29.93,North,-999,0.0,0.0,91,0.00,,,-99.99,WeatherLink 5.4,2013-10-12 10:38:00,
2013-10-12 06:40:00,69.9,67.2,29.93,North,-999,0.0,0.0,91,0.00,,,-99.99,WeatherLink 5.4,2013-10-12 10:40:00,
2013-10-12 06:45:00,69.9,67.2,29.93,North,-999,0.0,0.0,91,0.00,,,-99.99,WeatherLink 5.4,2013-10-12 10:45:00,
2013-10-12 06:48:00,69.9,67.2,29.93,North,-999,0.0,0.0,91,0.00,,,-99.99,WeatherLink 5.4,2013-10-12 10:48:00,
2013-10-12 06:50:00,69.8,67.1,29.93,North,-999,0.0,0.0,91,0.00,,,-99.99,WeatherLink 5.4,2013-10-12 10:50:00,
2013-10-12 06:53:00,69.9,67.2,29.93,North,-999,0.0,0.0,91,0.00,,,-99.99,WeatherLink 5.4,2013-10-12 10:53:00,
2013-10-12 06:55:00,69.7,67.0,29.93,North,-999,0.0,0.0,91,0.00,,,-99.99,WeatherLink 5.4,2013-10-12 10:55:00,
2013-10-12 07:00:00,69.6,66.9,29.93,North,-999,0.0,0.0,91,0.00,,,-99.99,WeatherLink 5.4,2013-10-12 11:00:00,
2013-10-12 07:03:00,69.7,67.0,29.93,North,-999,0.0,0.0,91,0.00,,,-99.99,WeatherLink 5.4,2013-10-12 11:03:00,
2013-10-12 07:05:00,69.5,66.8,29.93,North,-999,0.0,0.0,91,0.00,,,-99.99,WeatherLink 5.4,2013-10-12 11:05:00,
2013-10-12 07:08:00,69.6,66.9,29.93,North,-999,0.0,0.0,91,0.00,,,-99.99,WeatherLink 5.4,2013-10-12 11:08:00,
2013-10-12 07:10:00,69.5,67.1,29.93,North,-999,0.0,0.0,92,0.00,,,-99.99,WeatherLink 5.4,2013-10-12 11:10:00,
2013-10-12 07:15:00,69.4,67.0,29.93,North,-999,0.0,0.0,92,0.00,,,-99.99,WeatherLink 5.4,2013-10-12 11:15:00,
2013-10-12 07:18:00,69.5,67.1,29.93,North,-999,0.0,0.0,92,0.00,,,-99.99,WeatherLink 5.4,2013-10-12 11:18:00,
2013-10-12 07:20:00,69.2,66.8,29.93,North,-999,0.0,0.0,92,0.00,,,-99.99,WeatherLink 5.4,2013-10-12 11:20:00,
2013-10-12 07:23:00,69.4,67.0,29.93,North,-999,0.0,0.0,92,0.00,,,-99.99,WeatherLink 5.4,2013-10-12 11:23:00,
2013-10-12 07:25:00,68.9,66.5,29.93,North,-999,0.0,0.0,92,0.00,,,-99.99,WeatherLink 5.4,2013-10-12 11:25:00,
2013-10-12 07:30:00,68.8,66.7,29.94,North,-999,0.0,0.0,93,0.00,,,-99.99,WeatherLink 5.4,2013-10-12 11:30:00,
2013-10-12 07:33:00,68.9,66.5,29.93,North,-999,0.0,0.0,92,0.00,,,-99.99,WeatherLink 5.4,2013-10-12 11:33:00,
2013-10-12 07:35:00,68.6,66.5,29.94,North,-999,0.0,0.0,93,0.00,,,-99.99,WeatherLink 5.4,2013-10-12 11:35:00,
2013-10-12 07:40:00,68.4,66.3,29.94,North,-999,0.0,0.0,93,0.00,,,-99.99,WeatherLink 5.4,2013-10-12 11:40:00,
2013-10-12 07:43:00,68.6,66.5,29.94,North,-999,0.0,0.0,93,0.00,,,-99.99,WeatherLink 5.4,2013-10-12 11:43:00,
2013-10-12 07:45:00,68.3,66.2,29.94,North,-999,0.0,0.0,93,0.00,,,-99.99,WeatherLink 5.4,2013-10-12 11:45:00,
2013-10-12 07:48:00,68.4,66.3,29.94,North,-999,0.0,0.0,93,0.00,,,-99.99,WeatherLink 5.4,2013-10-12 11:48:00,
2013-10-12 07:50:00,68.3,66.5,29.94,North,-999,0.0,0.0,94,0.00,,,-99.99,WeatherLink 5.4,2013-10-12 11:50:00,
2013-10-12 07:55:00,68.5,66.7,29.94,North,-999,0.0,0.0,94,0.00,,,-99.99,WeatherLink 5.4,2013-10-12 11:55:00,
2013-10-12 07:58:00,68.3,66.5,29.94,North,-999,0.0,0.0,94,0.00,,,-99.99,WeatherLink 5.4,2013-10-12 11:58:00,
2013-10-12 08:00:00,68.8,67.0,29.95,North,-999,0.0,0.0,94,0.00,,,-99.99,WeatherLink 5.4,2013-10-12 12:00:00,
2013-10-12 08:05:00,69.1,67.3,29.95,North,-999,0.0,0.0,94,0.00,,,-99.99,WeatherLink 5.4,2013-10-12 12:05:00,
2013-10-12 08:08:00,68.8,67.0,29.95,North,-999,0.0,0.0,94,0.00,,,-99.99,WeatherLink 5.4,2013-10-12 12:08:00,
2013-10-12 08:10:00,69.3,67.5,29.95,North,-999,0.0,0.0,94,0.00,,,-99.99,WeatherLink 5.4,2013-10-12 12:10:00,
2013-10-12 08:15:00,69.6,67.8,29.95,North,-999,0.0,0.0,94,0.00,,,-99.99,WeatherLink 5.4,2013-10-12 12:15:00,
2013-10-12 08:18:00,69.3,67.5,29.95,North,-999,0.0,0.0,94,0.00,,,-99.99,WeatherLink 5.4,2013-10-12 12:18:00,
2013-10-12 08:20:00,70.0,68.2,29.95,North,-999,0.0,0.0,94,0.00,,,-99.99,WeatherLink 5.4,2013-10-12 12:20:00,
2013-10-12 08:25:00,70.7,68.9,29.95,North,-999,0.0,0.0,94,0.00,,,-99.99,WeatherLink 5.4,2013-10-12 12:25:00,
2013-10-12 08:28:00,70.0,68.2,29.95,North,-999,0.0,0.0,94,0.00,,,-99.99,WeatherLink 5.4,2013-10-12 12:28:00,
2013-10-12 08:30:00,71.7,69.3,29.95,North,-999,0.0,0.0,92,0.00,,,-99.99,WeatherLink 5.4,2013-10-12 12:30:00,
2013-10-12 08:33:00,70.7,68.9,29.95,North,-999,0.0,0.0,94,0.00,,,-99.99,WeatherLink 5.4,2013-10-12 12:33:00,
2013-10-12 08:35:00,72.6,69.5,29.95,North,-999,0.0,0.0,90,0.00,,,-99.99,WeatherLink 5.4,2013-10-12 12:35:00,
2013-10-12 08:40:00,73.6,69.8,29.95,North,-999,0.0,0.0,88,0.00,,,-99.99,WeatherLink 5.4,2013-10-12 12:40:00,
2013-10-12 08:43:00,72.6,69.5,29.95,North,-999,0.0,0.0,90,0.00,,,-99.99,WeatherLink 5.4,2013-10-12 12:43:00,
2013-10-12 08:45:00,74.4,69.6,29.96,North,-999,0.0,0.0,85,0.00,,,-99.99,WeatherLink 5.4,2013-10-12 12:45:00,
2013-10-12 08:48:00,73.6,69.8,29.95,North,-999,0.0,0.0,88,0.00,,,-99.99,WeatherLink 5.4,2013-10-12 12:48:00,
2013-10-12 08:50:00,74.9,69.4,29.96,North,-999,0.0,0.0,83,0.00,,,-99.99,WeatherLink 5.4,2013-10-12 12:50:00,
2013-10-12 08:55:00,75.3,69.1,29.96,North,-999,0.0,0.0,81,0.00,,,-99.99,WeatherLink 5.4,2013-10-12 12:55:00,
2013-10-12 08:58:00,74.9,69.4,29.96,North,-999,0.0,0.0,83,0.00,,,-99.99,WeatherLink 5.4,2013-10-12 12:58:00,
2013-10-12 09:00:00,75.6,68.6,29.96,North,-999,0.0,0.0,79,0.00,,,-99.99,WeatherLink 5.4,2013-10-12 13:00:00,
2013-10-12 09:03:00,75.3,69.1,29.96,North,-999,0.0,0.0,81,0.00,,,-99.99,WeatherLink 5.4,2013-10-12 13:03:00,
2013-10-12 09:05:00,75.8,68.4,29.96,North,-999,0.0,0.0,78,0.00,,,-99.99,WeatherLink 5.4,2013-10-12 13:05:00,
2013-10-12 09:10:00,76.0,68.6,29.96,North,-999,0.0,0.0,78,0.00,,,-99.99,WeatherLink 5.4,2013-10-12 13:10:00,
2013-10-12 09:13:00,75.8,68.4,29.96,North,-999,0.0,0.0,78,0.00,,,-99.99,WeatherLink 5.4,2013-10-12 13:13:00,
2013-10-12 09:15:00,76.1,67.6,29.97,North,-999,0.0,0.0,75,0.00,,,-99.99,WeatherLink 5.4,2013-10-12 13:15:00,
2013-10-12 09:18:00,76.0,68.6,29.96,North,-999,0.0,0.0,78,0.00,,,-99.99,WeatherLink 5.4,2013-10-12 13:18:00,
2013-10-12 09:20:00,76.4,67.9,29.97,North,-999,0.0,0.0,75,0.00,,,-99.99,WeatherLink 5.4,2013-10-12 13:20:00,
2013-10-12 09:25:00,76.6,67.7,29.97,North,-999,0.0,0.0,74,0.00,,,-99.99,WeatherLink 5.4,2013-10-12 13:25:00,
2013-10-12 09:28:00,76.4,67.9,29.97,North,-999,0.0,0.0,75,0.00,,,-99.99,WeatherLink 5.4,2013-10-12 13:28:00,
2013-10-12 09:30:00,76.9,67.6,29.97,NW,315,1.0,6.0,73,0.00,,,-99.99,WeatherLink 5.4,2013-10-12 13:30:00,
2013-10-12 09:35:00,77.3,68.0,29.97,North,-999,0.0,0.0,73,0.00,,,-99.99,WeatherLink 5.4,2013-10-12 13:35:00,
2013-10-12 09:38:00,76.9,67.6,29.97,NW,315,1.0,6.0,73,0.00,,,-99.99,WeatherLink 5.4,2013-10-12 13:38:00,
2013-10-12 09:40:00,77.3,67.6,29.97,North,-999,0.0,0.0,72,0.00,,,-99.99,WeatherLink 5.4,2013-10-12 13:40:00,
2013-10-12 09:43:00,77.3,68.0,29.97,North,-999,0.0,0.0,73,0.00,,,-99.99,WeatherLink 5.4,2013-10-12 13:43:00,
2013-10-12 09:45:00,76.9,66.8,29.97,North,-999,0.0,0.0,71,0.00,,,-99.99,WeatherLink 5.4,2013-10-12 13:45:00,
2013-10-12 09:50:00,77.0,66.9,29.97,North,-999,0.0,0.0,71,0.00,,,-99.99,WeatherLink 5.4,2013-10-12 13:50:00,
2013-10-12 09:53:00,76.9,66.8,29.97,North,-999,0.0,0.0,71,0.00,,,-99.99,WeatherLink 5.4,2013-10-12 13:53:00,
2013-10-12 09:55:00,77.3,67.2,29.97,North,-999,0.0,0.0,71,0.00,,,-99.99,WeatherLink 5.4,2013-10-12 13:55:00,
2013-10-12 10:00:00,77.7,67.1,29.97,North,-999,0.0,0.0,70,0.00,,,-99.99,WeatherLink 5.4,2013-10-12 14:00:00,
2013-10-12 10:03:00,77.3,67.2,29.97,North,-999,0.0,0.0,71,0.00,,,-99.99,WeatherLink 5.4,2013-10-12 14:03:00,
2013-10-12 10:05:00,78.3,66.9,29.97,North,-999,0.0,0.0,68,0.00,,,-99.99,WeatherLink 5.4,2013-10-12 14:05:00,
2013-10-12 10:08:00,77.7,67.1,29.97,North,-999,0.0,0.0,70,0.00,,,-99.99,WeatherLink 5.4,2013-10-12 14:08:00,
2013-10-12 10:10:00,78.3,66.0,29.97,North,-999,0.0,0.0,66,0.00,,,-99.99,WeatherLink 5.4,2013-10-12 14:10:00,
2013-10-12 10:13:00,78.3,66.9,29.97,North,-999,0.0,0.0,68,0.00,,,-99.99,WeatherLink 5.4,2013-10-12 14:13:00,
2013-10-12 10:15:00,78.4,66.1,29.98,North,-999,0.0,0.0,66,0.00,,,-99.99,WeatherLink 5.4,2013-10-12 14:15:00,
2013-10-12 10:20:00,78.5,65.8,29.98,North,0,0.0,5.0,65,0.00,,,-99.99,WeatherLink 5.4,2013-10-12 14:20:00,
2013-10-12 10:23:00,78.4,66.1,29.98,North,-999,0.0,0.0,66,0.00,,,-99.99,WeatherLink 5.4,2013-10-12 14:23:00,
2013-10-12 10:25:00,78.7,64.6,29.98,NNE,22,0.0,5.0,62,0.00,,,-99.99,WeatherLink 5.4,2013-10-12 14:25:00,
2013-10-12 10:30:00,78.8,64.7,29.98,North,-999,0.0,0.0,62,0.00,,,-99.99,WeatherLink 5.4,2013-10-12 14:30:00,
2013-10-12 10:33:00,78.7,64.6,29.98,NNE,22,0.0,5.0,62,0.00,,,-99.99,WeatherLink 5.4,2013-10-12 14:33:00,
2013-10-12 10:35:00,79.0,63.9,29.98,North,-999,0.0,0.0,60,0.00,,,-99.99,WeatherLink 5.4,2013-10-12 14:35:00,
2013-10-12 10:38:00,78.8,64.7,29.98,North,-999,0.0,0.0,62,0.00,,,-99.99,WeatherLink 5.4,2013-10-12 14:38:00,
2013-10-12 10:40:00,79.6,64.5,29.98,North,-999,0.0,0.0,60,0.00,,,-99.99,WeatherLink 5.4,2013-10-12 14:40:00,
2013-10-12 10:45:00,79.7,65.1,29.97,North,-999,0.0,0.0,61,0.00,,,-99.99,WeatherLink 5.4,2013-10-12 14:45:00,
2013-10-12 10:48:00,79.6,64.5,29.98,North,-999,0.0,0.0,60,0.00,,,-99.99,WeatherLink 5.4,2013-10-12 14:48:00,
2013-10-12 10:50:00,79.8,64.2,29.97,North,-999,0.0,0.0,59,0.00,,,-99.99,WeatherLink 5.4,2013-10-12 14:50:00,
2013-10-12 10:55:00,79.8,64.2,29.97,North,-999,0.0,0.0,59,0.00,,,-99.99,WeatherLink 5.4,2013-10-12 14:55:00,
2013-10-12 10:58:00,79.8,64.2,29.97,North,-999,0.0,0.0,59,0.00,,,-99.99,WeatherLink 5.4,2013-10-12 14:58:00,
2013-10-12 11:00:00,79.9,64.3,29.97,North,-999,0.0,0.0,59,0.00,,,-99.99,WeatherLink 5.4,2013-10-12 15:00:00,
2013-10-12 11:03:00,79.8,64.2,29.97,North,-999,0.0,0.0,59,0.00,,,-99.99,WeatherLink 5.4,2013-10-12 15:03:00,
2013-10-12 11:05:00,80.1,64.0,29.97,North,-999,0.0,0.0,58,0.00,,,-99.99,WeatherLink 5.4,2013-10-12 15:05:00,
2013-10-12 11:08:00,79.9,64.3,29.97,North,-999,0.0,0.0,59,0.00,,,-99.99,WeatherLink 5.4,2013-10-12 15:08:00,
2013-10-12 11:10:00,80.6,64.0,29.97,NNW,337,0.0,6.0,57,0.00,,,-99.99,WeatherLink 5.4,2013-10-12 15:10:00,
2013-10-12 11:15:00,80.5,63.9,29.97,North,0,1.0,6.0,57,0.00,,,-99.99,WeatherLink 5.4,2013-10-12 15:15:00,
2013-10-12 11:18:00,80.6,64.0,29.97,NNW,337,0.0,6.0,57,0.00,,,-99.99,WeatherLink 5.4,2013-10-12 15:18:00,
2013-10-12 11:20:00,80.8,63.1,29.97,NNW,337,1.0,7.0,55,0.00,,,-99.99,WeatherLink 5.4,2013-10-12 15:20:00,
2013-10-12 11:25:00,81.3,62.5,29.97,North,-999,0.0,0.0,53,0.00,,,-99.99,WeatherLink 5.4,2013-10-12 15:25:00,
2013-10-12 11:28:00,80.8,63.1,29.97,NNW,337,1.0,7.0,55,0.00,,,-99.99,WeatherLink 5.4,2013-10-12 15:28:00,
2013-10-12 11:30:00,81.6,62.3,29.97,North,0,1.0,7.0,52,0.00,,,-99.99,WeatherLink 5.4,2013-10-12 15:30:00,
2013-10-12 11:33:00,81.3,62.5,29.97,North,-999,0.0,0.0,53,0.00,,,-99.99,WeatherLink 5.4,2013-10-12 15:33:00,
2013-10-12 11:35:00,81.9,62.5,29.97,North,0,1.0,8.0,52,0.00,,,-99.99,WeatherLink 5.4,2013-10-12 15:35:00,
2013-10-12 11:40:00,81.7,62.4,29.97,North,0,0.0,3.0,52,0.00,,,-99.99,WeatherLink 5.4,2013-10-12 15:40:00,
2013-10-12 11:43:00,81.9,62.5,29.97,North,0,1.0,8.0,52,0.00,,,-99.99,WeatherLink 5.4,2013-10-12 15:43:00,
2013-10-12 11:45:00,81.7,60.7,29.97,North,0,2.0,8.0,49,0.00,,,-99.99,WeatherLink 5.4,2013-10-12 15:45:00,
2013-10-12 11:48:00,81.7,62.4,29.97,North,0,0.0,3.0,52,0.00,,,-99.99,WeatherLink 5.4,2013-10-12 15:48:00,
2013-10-12 11:50:00,81.7,61.2,29.97,WNW,292,1.0,8.0,50,0.00,,,-99.99,WeatherLink 5.4,2013-10-12 15:50:00,
2013-10-12 11:55:00,82.1,61.6,29.97,NW,315,0.0,6.0,50,0.00,,,-99.99,WeatherLink 5.4,2013-10-12 15:55:00,
2013-10-12 11:58:00,81.7,61.2,29.97,WNW,292,1.0,8.0,50,0.00,,,-99.99,WeatherLink 5.4,2013-10-12 15:58:00,
2013-10-12 12:00:00,82.4,61.9,29.97,North,0,2.0,8.0,50,0.00,,,-99.99,WeatherLink 5.4,2013-10-12 16:00:00,
2013-10-12 12:03:00,82.1,61.6,29.97,NW,315,0.0,6.0,50,0.00,,,-99.99,WeatherLink 5.4,2013-10-12 16:03:00,
2013-10-12 12:05:00,82.5,61.4,29.97,NW,315,0.0,7.0,49,0.00,,,-99.99,WeatherLink 5.4,2013-10-12 16:05:00,
2013-10-12 12:10:00,82.5,61.4,29.97,NNW,337,2.0,8.0,49,0.00,,,-99.99,WeatherLink 5.4,2013-10-12 16:10:00,
2013-10-12 12:13:00,82.5,61.4,29.97,NW,315,0.0,7.0,49,0.00,,,-99.99,WeatherLink 5.4,2013-10-12 16:13:00,
2013-10-12 12:15:00,82.8,62.3,29.96,NW,315,1.0,10.0,50,0.00,,,-99.99,WeatherLink 5.4,2013-10-12 16:15:00,
2013-10-12 12:18:00,82.5,61.4,29.97,NNW,337,2.0,8.0,49,0.00,,,-99.99,WeatherLink 5.4,2013-10-12 16:18:00,
2013-10-12 12:20:00,83.0,61.3,29.96,NNW,337,0.0,3.0,48,0.00,,,-99.99,WeatherLink 5.4,2013-10-12 16:20:00,
2013-10-12 12:25:00,83.6,61.2,29.96,North,0,0.0,5.0,47,0.00,,,-99.99,WeatherLink 5.4,2013-10-12 16:25:00,
2013-10-12 12:28:00,83.0,61.3,29.96,NNW,337,0.0,3.0,48,0.00,,,-99.99,WeatherLink 5.4,2013-10-12 16:28:00,
2013-10-12 12:30:00,83.7,61.9,29.95,North,0,1.0,8.0,48,0.00,,,-99.99,WeatherLink 5.4,2013-10-12 16:30:00,
2013-10-12 12:33:00,83.6,61.2,29.96,North,0,0.0,5.0,47,0.00,,,-99.99,WeatherLink 5.4,2013-10-12 16:33:00,
2013-10-12 12:35:00,83.5,61.1,29.95,NNW,337,1.0,7.0,47,0.00,,,-99.99,WeatherLink 5.4,2013-10-12 16:35:00,
2013-10-12 12:40:00,83.5,61.7,29.95,North,-999,0.0,0.0,48,0.00,,,-99.99,WeatherLink 5.4,2013-10-12 16:40:00,
2013-10-12 12:43:00,83.5,61.1,29.95,NNW,337,1.0,7.0,47,0.00,,,-99.99,WeatherLink 5.4,2013-10-12 16:43:00,
2013-10-12 12:45:00,84.1,59.2,29.95,NW,315,2.0,8.0,43,0.00,,,-99.99,WeatherLink 5.4,2013-10-12 16:45:00,
2013-10-12 12:50:00,84.1,59.8,29.95,NW,315,4.0,11.0,44,0.00,,,-99.99,WeatherLink 5.4,2013-10-12 16:50:00,
2013-10-12 12:53:00,84.1,59.2,29.95,NW,315,2.0,8.0,43,0.00,,,-99.99,WeatherLink 5.4,2013-10-12 16:53:00,
2013-10-12 12:55:00,83.9,60.3,29.95,NW,315,2.0,11.0,45,0.00,,,-99.99,WeatherLink 5.4,2013-10-12 16:55:00,
2013-10-12 12:58:00,84.1,59.8,29.95,NW,315,4.0,11.0,44,0.00,,,-99.99,WeatherLink 5.4,2013-10-12 16:58:00,
2013-10-12 13:00:00,84.1,59.8,29.95,NW,315,2.0,8.0,44,0.00,,,-99.99,WeatherLink 5.4,2013-10-12 17:00:00,
2013-10-12 13:03:00,83.9,60.3,29.95,NW,315,2.0,11.0,45,0.00,,,-99.99,WeatherLink 5.4,2013-10-12 17:03:00,
2013-10-12 13:05:00,84.0,59.7,29.95,NW,315,3.0,10.0,44,0.00,,,-99.99,WeatherLink 5.4,2013-10-12 17:05:00,
2013-10-12 13:10:00,84.1,59.8,29.95,West,270,3.0,11.0,44,0.00,,,-99.99,WeatherLink 5.4,2013-10-12 17:10:00,
2013-10-12 13:13:00,84.0,59.7,29.95,NW,315,3.0,10.0,44,0.00,,,-99.99,WeatherLink 5.4,2013-10-12 17:13:00,
2013-10-12 13:15:00,84.1,59.2,29.94,NW,315,4.0,10.0,43,0.00,,,-99.99,WeatherLink 5.4,2013-10-12 17:15:00,
2013-10-12 13:20:00,84.0,59.1,29.94,NW,315,5.0,7.0,43,0.00,,,-99.99,WeatherLink 5.4,2013-10-12 17:20:00,
2013-10-12 13:23:00,84.1,59.2,29.94,NW,315,4.0,10.0,43,0.00,,,-99.99,WeatherLink 5.4,2013-10-12 17:23:00,
2013-10-12 13:25:00,84.1,59.2,29.94,NW,315,4.0,13.0,43,0.00,,,-99.99,WeatherLink 5.4,2013-10-12 17:25:00,
2013-10-12 13:28:00,84.0,59.1,29.94,NW,315,5.0,7.0,43,0.00,,,-99.99,WeatherLink 5.4,2013-10-12 17:28:00,
2013-10-12 13:30:00,83.9,59.7,29.94,NNW,337,5.0,11.0,44,0.00,,,-99.99,WeatherLink 5.4,2013-10-12 17:30:00,
2013-10-12 13:35:00,83.4,59.2,29.94,NW,315,7.0,13.0,44,0.00,,,-99.99,WeatherLink 5.4,2013-10-12 17:35:00,
2013-10-12 13:38:00,83.9,59.7,29.94,NNW,337,5.0,11.0,44,0.00,,,-99.99,WeatherLink 5.4,2013-10-12 17:38:00,
2013-10-12 13:40:00,83.5,59.9,29.94,WNW,292,3.0,11.0,45,0.00,,,-99.99,WeatherLink 5.4,2013-10-12 17:40:00,
2013-10-12 13:45:00,83.7,59.5,29.93,NW,315,5.0,12.0,44,0.00,,,-99.99,WeatherLink 5.4,2013-10-12 17:45:00,
2013-10-12 13:48:00,83.5,59.9,29.94,WNW,292,3.0,11.0,45,0.00,,,-99.99,WeatherLink 5.4,2013-10-12 17:48:00,
2013-10-12 13:50:00,83.7,60.1,29.93,NW,315,4.0,12.0,45,0.00,,,-99.99,WeatherLink 5.4,2013-10-12 17:50:00,
2013-10-12 13:55:00,83.8,60.2,29.93,WNW,292,3.0,13.0,45,0.00,,,-99.99,WeatherLink 5.4,2013-10-12 17:55:00,
2013-10-12 13:58:00,83.7,60.1,29.93,NW,315,4.0,12.0,45,0.00,,,-99.99,WeatherLink 5.4,2013-10-12 17:58:00,
2013-10-12 14:00:00,83.8,59.6,29.93,NW,315,5.0,13.0,44,0.00,,,-99.99,WeatherLink 5.4,2013-10-12 18:00:00,
2013-10-12 14:03:00,83.8,60.2,29.93,WNW,292,3.0,13.0,45,0.00,,,-99.99,WeatherLink 5.4,2013-10-12 18:03:00,
2013-10-12 14:05:00,83.8,59.6,29.93,NW,315,4.0,13.0,44,0.00,,,-99.99,WeatherLink 5.4,2013-10-12 18:05:00,
2013-10-12 14:08:00,83.8,59.6,29.93,NW,315,5.0,13.0,44,0.00,,,-99.99,WeatherLink 5.4,2013-10-12 18:08:00,
2013-10-12 14:10:00,83.8,59.6,29.93,NW,315,2.0,12.0,44,0.00,,,-99.99,WeatherLink 5.4,2013-10-12 18:10:00,
2013-10-12 14:15:00,83.8,59.6,29.92,WNW,292,8.0,14.0,44,0.00,,,-99.99,WeatherLink 5.4,2013-10-12 18:15:00,
2013-10-12 14:18:00,83.8,59.6,29.93,NW,315,2.0,12.0,44,0.00,,,-99.99,WeatherLink 5.4,2013-10-12 18:18:00,
2013-10-12 14:20:00,83.3,59.7,29.92,NW,315,6.0,13.0,45,0.00,,,-99.99,WeatherLink 5.4,2013-10-12 18:20:00,
2013-10-12 14:23:00,83.8,59.6,29.92,WNW,292,8.0,14.0,44,0.00,,,-99.99,WeatherLink 5.4,2013-10-12 18:23:00,
2013-10-12 14:25:00,83.4,59.8,29.92,NW,315,7.0,14.0,45,0.00,,,-99.99,WeatherLink 5.4,2013-10-12 18:25:00,
2013-10-12 14:30:00,83.2,59.6,29.92,NW,315,7.0,16.0,45,0.00,,,-99.99,WeatherLink 5.4,2013-10-12 18:30:00,
2013-10-12 14:33:00,83.4,59.8,29.92,NW,315,7.0,14.0,45,0.00,,,-99.99,WeatherLink 5.4,2013-10-12 18:33:00,
2013-10-12 14:35:00,83.2,59.6,29.92,NW,315,6.0,14.0,45,0.00,,,-99.99,WeatherLink 5.4,2013-10-12 18:35:00,
2013-10-12 14:40:00,83.0,60.1,29.92,NW,315,3.0,12.0,46,0.00,,,-99.99,WeatherLink 5.4,2013-10-12 18:40:00,
2013-10-12 14:43:00,83.2,59.6,29.92,NW,315,6.0,14.0,45,0.00,,,-99.99,WeatherLink 5.4,2013-10-12 18:43:00,
2013-10-12 14:45:00,83.5,59.9,29.92,NW,315,4.0,11.0,45,0.00,,,-99.99,WeatherLink 5.4,2013-10-12 18:45:00,
2013-10-12 14:48:00,83.0,60.1,29.92,NW,315,3.0,12.0,46,0.00,,,-99.99,WeatherLink 5.4,2013-10-12 18:48:00,
2013-10-12 14:50:00,83.3,60.4,29.92,NW,315,7.0,17.0,46,0.00,,,-99.99,WeatherLink 5.4,2013-10-12 18:50:00,
2013-10-12 14:55:00,83.1,60.2,29.92,NW,315,3.0,10.0,46,0.00,,,-99.99,WeatherLink 5.4,2013-10-12 18:55:00,
2013-10-12 14:58:00,83.3,60.4,29.92,NW,315,7.0,17.0,46,0.00,,,-99.99,WeatherLink 5.4,2013-10-12 18:58:00,
2013-10-12 15:00:00,83.3,59.1,29.92,NW,315,7.0,17.0,44,0.00,,,-99.99,WeatherLink 5.4,2013-10-12 19:00:00,
2013-10-12 15:03:00,83.1,60.2,29.92,NW,315,3.0,10.0,46,0.00,,,-99.99,WeatherLink 5.4,2013-10-12 19:03:00,
2013-10-12 15:05:00,83.0,58.8,29.92,NW,315,6.0,14.0,44,0.00,,,-99.99,WeatherLink 5.4,2013-10-12 19:05:00,
2013-10-12 15:08:00,83.3,59.1,29.92,NW,315,7.0,17.0,44,0.00,,,-99.99,WeatherLink 5.4,2013-10-12 19:08:00,
2013-10-12 15:10:00,83.3,59.7,29.92,NNW,337,3.0,12.0,45,0.00,,,-99.99,WeatherLink 5.4,2013-10-12 19:10:00,
2013-10-12 15:15:00,83.3,59.7,29.92,NW,315,6.0,16.0,45,0.00,,,-99.99,WeatherLink 5.4,2013-10-12 19:15:00,
2013-10-12 15:18:00,83.3,59.7,29.92,NNW,337,3.0,12.0,45,0.00,,,-99.99,WeatherLink 5.4,2013-10-12 19:18:00,
2013-10-12 15:20:00,83.2,59.6,29.92,NNW,337,5.0,11.0,45,0.00,,,-99.99,WeatherLink 5.4,2013-10-12 19:20:00,
2013-10-12 15:25:00,83.1,59.6,29.92,NW,315,6.0,10.0,45,0.00,,,-99.99,WeatherLink 5.4,2013-10-12 19:25:00,
2013-10-12 15:28:00,83.2,59.6,29.92,NNW,337,5.0,11.0,45,0.00,,,-99.99,WeatherLink 5.4,2013-10-12 19:28:00,
2013-10-12 15:30:00,83.2,59.6,29.92,NW,315,7.0,13.0,45,0.00,,,-99.99,WeatherLink 5.4,2013-10-12 19:30:00,
2013-10-12 15:35:00,82.9,60.0,29.92,NW,315,6.0,12.0,46,0.00,,,-99.99,WeatherLink 5.4,2013-10-12 19:35:00,
2013-10-12 15:38:00,83.2,59.6,29.92,NW,315,7.0,13.0,45,0.00,,,-99.99,WeatherLink 5.4,2013-10-12 19:38:00,
2013-10-12 15:40:00,82.9,60.0,29.92,WNW,292,5.0,12.0,46,0.00,,,-99.99,WeatherLink 5.4,2013-10-12 19:40:00,
2013-10-12 15:43:00,82.9,60.0,29.92,NW,315,6.0,12.0,46,0.00,,,-99.99,WeatherLink 5.4,2013-10-12 19:43:00,
2013-10-12 15:45:00,82.9,60.0,29.92,NW,315,7.0,14.0,46,0.00,,,-99.99,WeatherLink 5.4,2013-10-12 19:45:00,
2013-10-12 15:50:00,82.9,60.0,29.92,NW,315,4.0,13.0,46,0.00,,,-99.99,WeatherLink 5.4,2013-10-12 19:50:00,
2013-10-12 15:53:00,82.9,60.0,29.92,NW,315,7.0,14.0,46,0.00,,,-99.99,WeatherLink 5.4,2013-10-12 19:53:00,
2013-10-12 15:55:00,82.8,59.9,29.92,NW,315,6.0,14.0,46,0.00,,,-99.99,WeatherLink 5.4,2013-10-12 19:55:00,
2013-10-12 16:00:00,82.7,60.4,29.92,NW,315,5.0,12.0,47,0.00,,,-99.99,WeatherLink 5.4,2013-10-12 20:00:00,
2013-10-12 16:03:00,82.8,59.9,29.92,NW,315,6.0,14.0,46,0.00,,,-99.99,WeatherLink 5.4,2013-10-12 20:03:00,
2013-10-12 16:05:00,82.8,60.5,29.92,NW,315,5.0,12.0,47,0.00,,,-99.99,WeatherLink 5.4,2013-10-12 20:05:00,
2013-10-12 16:10:00,82.7,59.2,29.92,NW,315,7.0,14.0,45,0.00,,,-99.99,WeatherLink 5.4,2013-10-12 20:10:00,
2013-10-12 16:13:00,82.8,60.5,29.92,NW,315,5.0,12.0,47,0.00,,,-99.99,WeatherLink 5.4,2013-10-12 20:13:00,
2013-10-12 16:15:00,82.3,59.4,29.92,WNW,292,6.0,12.0,46,0.00,,,-99.99,WeatherLink 5.4,2013-10-12 20:15:00,
2013-10-12 16:20:00,82.2,60.6,29.92,WNW,292,5.0,11.0,48,0.00,,,-99.99,WeatherLink 5.4,2013-10-12 20:20:00,
2013-10-12 16:23:00,82.3,59.4,29.92,WNW,292,6.0,12.0,46,0.00,,,-99.99,WeatherLink 5.4,2013-10-12 20:23:00,
2013-10-12 16:25:00,82.3,60.1,29.92,NW,315,4.0,11.0,47,0.00,,,-99.99,WeatherLink 5.4,2013-10-12 20:25:00,
2013-10-12 16:28:00,82.2,60.6,29.92,WNW,292,5.0,11.0,48,0.00,,,-99.99,WeatherLink 5.4,2013-10-12 20:28:00,
2013-10-12 16:30:00,82.2,59.4,29.91,WNW,292,7.0,13.0,46,0.00,,,-99.99,WeatherLink 5.4,2013-10-12 20:30:00,
2013-10-12 16:35:00,82.1,60.5,29.91,NW,315,6.0,12.0,48,0.00,,,-99.99,WeatherLink 5.4,2013-10-12 20:35:00,
2013-10-12 16:38:00,82.2,59.4,29.91,WNW,292,7.0,13.0,46,0.00,,,-99.99,WeatherLink 5.4,2013-10-12 20:38:00,
2013-10-12 16:40:00,82.0,60.4,29.91,NW,315,0.0,4.0,48,0.00,,,-99.99,WeatherLink 5.4,2013-10-12 20:40:00,
2013-10-12 16:45:00,82.1,59.9,29.91,WNW,292,4.0,12.0,47,0.00,,,-99.99,WeatherLink 5.4,2013-10-12 20:45:00,
2013-10-12 16:48:00,82.0,60.4,29.91,NW,315,0.0,4.0,48,0.00,,,-99.99,WeatherLink 5.4,2013-10-12 20:48:00,
2013-10-12 16:50:00,82.2,60.0,29.91,WNW,292,3.0,11.0,47,0.00,,,-99.99,WeatherLink 5.4,2013-10-12 20:50:00,
2013-10-12 16:53:00,82.1,59.9,29.91,WNW,292,4.0,12.0,47,0.00,,,-99.99,WeatherLink 5.4,2013-10-12 20:53:00,
2013-10-12 16:55:00,81.9,60.3,29.91,NW,315,2.0,10.0,48,0.00,,,-99.99,WeatherLink 5.4,2013-10-12 20:55:00,
2013-10-12 17:00:00,82.1,59.9,29.91,NW,315,2.0,10.0,47,0.00,,,-99.99,WeatherLink 5.4,2013-10-12 21:00:00,
2013-10-12 17:03:00,81.9,60.3,29.91,NW,315,2.0,10.0,48,0.00,,,-99.99,WeatherLink 5.4,2013-10-12 21:03:00,
2013-10-12 17:05:00,82.1,60.5,29.91,WNW,292,3.0,8.0,48,0.00,,,-99.99,WeatherLink 5.4,2013-10-12 21:05:00,
2013-10-12 17:10:00,81.8,60.2,29.91,NW,315,5.0,11.0,48,0.00,,,-99.99,WeatherLink 5.4,2013-10-12 21:10:00,
2013-10-12 17:13:00,82.1,60.5,29.91,WNW,292,3.0,8.0,48,0.00,,,-99.99,WeatherLink 5.4,2013-10-12 21:13:00,
2013-10-12 17:15:00,81.6,60.6,29.91,North,-999,0.0,0.0,49,0.00,,,-99.99,WeatherLink 5.4,2013-10-12 21:15:00,
2013-10-12 17:20:00,81.6,60.6,29.91,North,-999,0.0,0.0,49,0.00,,,-99.99,WeatherLink 5.4,2013-10-12 21:20:00,
2013-10-12 17:23:00,81.6,60.6,29.91,North,-999,0.0,0.0,49,0.00,,,-99.99,WeatherLink 5.4,2013-10-12 21:23:00,
2013-10-12 17:25:00,81.6,60.6,29.91,North,-999,0.0,0.0,49,0.00,,,-99.99,WeatherLink 5.4,2013-10-12 21:25:00,
2013-10-12 17:30:00,81.4,60.4,29.91,North,-999,0.0,0.0,49,0.00,,,-99.99,WeatherLink 5.4,2013-10-12 21:30:00,
2013-10-12 17:33:00,81.6,60.6,29.91,North,-999,0.0,0.0,49,0.00,,,-99.99,WeatherLink 5.4,2013-10-12 21:33:00,
2013-10-12 17:35:00,81.3,60.9,29.91,North,-999,0.0,0.0,50,0.00,,,-99.99,WeatherLink 5.4,2013-10-12 21:35:00,
2013-10-12 17:40:00,81.1,61.3,29.91,North,-999,0.0,0.0,51,0.00,,,-99.99,WeatherLink 5.4,2013-10-12 21:40:00,
2013-10-12 17:43:00,81.3,60.9,29.91,North,-999,0.0,0.0,50,0.00,,,-99.99,WeatherLink 5.4,2013-10-12 21:43:00,
2013-10-12 17:45:00,81.1,61.3,29.92,North,-999,0.0,0.0,51,0.00,,,-99.99,WeatherLink 5.4,2013-10-12 21:45:00,
2013-10-12 17:50:00,81.2,61.9,29.92,North,-999,0.0,0.0,52,0.00,,,-99.99,WeatherLink 5.4,2013-10-12 21:50:00,
2013-10-12 17:55:00,81.1,61.8,29.92,North,-999,0.0,0.0,52,0.00,,,-99.99,WeatherLink 5.4,2013-10-12 21:55:00,
2013-10-12 17:58:00,81.2,61.9,29.92,North,-999,0.0,0.0,52,0.00,,,-99.99,WeatherLink 5.4,2013-10-12 21:58:00,
2013-10-12 18:00:00,80.8,61.5,29.92,NW,315,0.0,6.0,52,0.00,,,-99.99,WeatherLink 5.4,2013-10-12 22:00:00,
2013-10-12 18:05:00,80.6,61.9,29.92,NW,315,1.0,6.0,53,0.00,,,-99.99,WeatherLink 5.4,2013-10-12 22:05:00,
2013-10-12 18:08:00,80.8,61.5,29.92,NW,315,0.0,6.0,52,0.00,,,-99.99,WeatherLink 5.4,2013-10-12 22:08:00,
2013-10-12 18:10:00,80.6,61.9,29.92,North,-999,0.0,0.0,53,0.00,,,-99.99,WeatherLink 5.4,2013-10-12 22:10:00,
2013-10-12 18:15:00,80.6,62.4,29.92,North,-999,0.0,0.0,54,0.00,,,-99.99,WeatherLink 5.4,2013-10-12 22:15:00,
2013-10-12 18:18:00,80.6,61.9,29.92,North,-999,0.0,0.0,53,0.00,,,-99.99,WeatherLink 5.4,2013-10-12 22:18:00,
2013-10-12 18:20:00,80.4,62.2,29.92,NW,315,1.0,8.0,54,0.00,,,-99.99,WeatherLink 5.4,2013-10-12 22:20:00,
2013-10-12 18:25:00,80.2,62.6,29.92,North,-999,0.0,0.0,55,0.00,,,-99.99,WeatherLink 5.4,2013-10-12 22:25:00,
2013-10-12 18:28:00,80.4,62.2,29.92,NW,315,1.0,8.0,54,0.00,,,-99.99,WeatherLink 5.4,2013-10-12 22:28:00,
2013-10-12 18:30:00,80.1,62.5,29.92,North,-999,0.0,0.0,55,0.00,,,-99.99,WeatherLink 5.4,2013-10-12 22:30:00,
2013-10-12 18:33:00,80.2,62.6,29.92,North,-999,0.0,0.0,55,0.00,,,-99.99,WeatherLink 5.4,2013-10-12 22:33:00,
2013-10-12 18:35:00,79.9,62.3,29.92,North,-999,0.0,0.0,55,0.00,,,-99.99,WeatherLink 5.4,2013-10-12 22:35:00,
2013-10-12 18:38:00,80.1,62.5,29.92,North,-999,0.0,0.0,55,0.00,,,-99.99,WeatherLink 5.4,2013-10-12 22:38:00,
2013-10-12 18:40:00,79.5,62.4,29.92,North,-999,0.0,0.0,56,0.00,,,-99.99,WeatherLink 5.4,2013-10-12 22:40:00,
2013-10-12 18:45:00,79.2,62.7,29.93,North,-999,0.0,0.0,57,0.00,,,-99.99,WeatherLink 5.4,2013-10-12 22:45:00,
2013-10-12 18:48:00,79.5,62.4,29.92,North,-999,0.0,0.0,56,0.00,,,-99.99,WeatherLink 5.4,2013-10-12 22:48:00,
2013-10-12 18:50:00,79.0,63.0,29.93,North,-999,0.0,0.0,58,0.00,,,-99.99,WeatherLink 5.4,2013-10-12 22:50:00,
2013-10-12 18:55:00,78.8,63.3,29.93,North,-999,0.0,0.0,59,0.00,,,-99.99,WeatherLink 5.4,2013-10-12 22:55:00,
2013-10-12 18:58:00,79.0,63.0,29.93,North,-999,0.0,0.0,58,0.00,,,-99.99,WeatherLink 5.4,2013-10-12 22:58:00,
2013-10-12 19:00:00,78.7,63.6,29.93,North,-999,0.0,0.0,60,0.00,,,-99.99,WeatherLink 5.4,2013-10-12 23:00:00,
2013-10-12 19:03:00,78.8,63.3,29.93,North,-999,0.0,0.0,59,0.00,,,-99.99,WeatherLink 5.4,2013-10-12 23:03:00,
2013-10-12 19:05:00,78.5,63.5,29.93,North,-999,0.0,0.0,60,0.00,,,-99.99,WeatherLink 5.4,2013-10-12 23:05:00,
2013-10-12 19:08:00,78.7,63.6,29.93,North,-999,0.0,0.0,60,0.00,,,-99.99,WeatherLink 5.4,2013-10-12 23:08:00,
2013-10-12 19:10:00,78.3,63.7,29.93,North,-999,0.0,0.0,61,0.00,,,-99.99,WeatherLink 5.4,2013-10-12 23:10:00,
2013-10-12 19:15:00,78.2,64.1,29.93,North,-999,0.0,0.0,62,0.00,,,-99.99,WeatherLink 5.4,2013-10-12 23:15:00,
2013-10-12 19:18:00,78.3,63.7,29.93,North,-999,0.0,0.0,61,0.00,,,-99.99,WeatherLink 5.4,2013-10-12 23:18:00,
2013-10-12 19:20:00,78.0,64.4,29.93,North,-999,0.0,0.0,63,0.00,,,-99.99,WeatherLink 5.4,2013-10-12 23:20:00,
2013-10-12 19:25:00,77.9,64.3,29.93,North,-999,0.0,0.0,63,0.00,,,-99.99,WeatherLink 5.4,2013-10-12 23:25:00,
2013-10-12 19:28:00,78.0,64.4,29.93,North,-999,0.0,0.0,63,0.00,,,-99.99,WeatherLink 5.4,2013-10-12 23:28:00,
2013-10-12 19:30:00,77.7,64.1,29.93,North,-999,0.0,0.0,63,0.00,,,-99.99,WeatherLink 5.4,2013-10-12 23:30:00,
2013-10-12 19:33:00,77.9,64.3,29.93,North,-999,0.0,0.0,63,0.00,,,-99.99,WeatherLink 5.4,2013-10-12 23:33:00,
2013-10-12 19:35:00,77.6,64.5,29.93,North,-999,0.0,0.0,64,0.00,,,-99.99,WeatherLink 5.4,2013-10-12 23:35:00,
2013-10-12 19:40:00,77.5,64.8,29.93,North,-999,0.0,0.0,65,0.00,,,-99.99,WeatherLink 5.4,2013-10-12 23:40:00,
2013-10-12 19:43:00,77.6,64.5,29.93,North,-999,0.0,0.0,64,0.00,,,-99.99,WeatherLink 5.4,2013-10-12 23:43:00,
2013-10-12 19:45:00,77.3,64.6,29.93,North,-999,0.0,0.0,65,0.00,,,-99.99,WeatherLink 5.4,2013-10-12 23:45:00,
2013-10-12 19:50:00,77.1,64.9,29.93,North,-999,0.0,0.0,66,0.00,,,-99.99,WeatherLink 5.4,2013-10-12 23:50:00,
2013-10-12 19:53:00,77.3,64.6,29.93,North,-999,0.0,0.0,65,0.00,,,-99.99,WeatherLink 5.4,2013-10-12 23:53:00,
2013-10-12 19:55:00,76.9,64.7,29.93,North,-999,0.0,0.0,66,0.00,,,-99.99,WeatherLink 5.4,2013-10-12 23:55:00,
2013-10-12 19:58:00,77.1,64.9,29.93,North,-999,0.0,0.0,66,0.00,,,-99.99,WeatherLink 5.4,2013-10-12 23:58:00,
2013-10-12 20:00:00,76.8,65.0,29.93,North,-999,0.0,0.0,67,0.00,,,-99.99,WeatherLink 5.4,2013-10-13 00:00:00,
2013-10-12 20:03:00,76.9,64.7,29.93,North,-999,0.0,0.0,66,0.00,,,-99.99,WeatherLink 5.4,2013-10-13 00:03:00,
2013-10-12 20:05:00,76.7,64.9,29.93,North,-999,0.0,0.0,67,0.00,,,-99.99,WeatherLink 5.4,2013-10-13 00:05:00,
2013-10-12 20:10:00,76.7,64.9,29.93,North,-999,0.0,0.0,67,0.00,,,-99.99,WeatherLink 5.4,2013-10-13 00:10:00,
2013-10-12 20:13:00,76.7,64.9,29.93,North,-999,0.0,0.0,67,0.00,,,-99.99,WeatherLink 5.4,2013-10-13 00:13:00,
2013-10-12 20:15:00,76.5,64.7,29.94,North,-999,0.0,0.0,67,0.00,,,-99.99,WeatherLink 5.4,2013-10-13 00:15:00,
2013-10-12 20:20:00,76.5,64.7,29.94,North,-999,0.0,0.0,67,0.00,,,-99.99,WeatherLink 5.4,2013-10-13 00:20:00,
2013-10-12 20:23:00,76.5,64.7,29.94,North,-999,0.0,0.0,67,0.00,,,-99.99,WeatherLink 5.4,2013-10-13 00:23:00,
2013-10-12 20:25:00,76.3,64.5,29.94,North,-999,0.0,0.0,67,0.00,,,-99.99,WeatherLink 5.4,2013-10-13 00:25:00,
2013-10-12 20:28:00,76.5,64.7,29.94,North,-999,0.0,0.0,67,0.00,,,-99.99,WeatherLink 5.4,2013-10-13 00:28:00,
2013-10-12 20:30:00,76.3,64.5,29.94,North,-999,0.0,0.0,67,0.00,,,-99.99,WeatherLink 5.4,2013-10-13 00:30:00,
2013-10-12 20:35:00,76.3,64.1,29.94,North,-999,0.0,0.0,66,0.00,,,-99.99,WeatherLink 5.4,2013-10-13 00:35:00,
2013-10-12 20:38:00,76.3,64.5,29.94,North,-999,0.0,0.0,67,0.00,,,-99.99,WeatherLink 5.4,2013-10-13 00:38:00,
2013-10-12 20:40:00,76.1,63.9,29.94,North,-999,0.0,0.0,66,0.00,,,-99.99,WeatherLink 5.4,2013-10-13 00:40:00,
2013-10-12 20:45:00,76.1,63.9,29.95,North,-999,0.0,0.0,66,0.00,,,-99.99,WeatherLink 5.4,2013-10-13 00:45:00,
2013-10-12 20:48:00,76.1,63.9,29.94,North,-999,0.0,0.0,66,0.00,,,-99.99,WeatherLink 5.4,2013-10-13 00:48:00,
2013-10-12 20:50:00,76.1,63.9,29.95,North,-999,0.0,0.0,66,0.00,,,-99.99,WeatherLink 5.4,2013-10-13 00:50:00,
2013-10-12 20:53:00,76.1,63.9,29.95,North,-999,0.0,0.0,66,0.00,,,-99.99,WeatherLink 5.4,2013-10-13 00:53:00,
2013-10-12 20:55:00,76.1,63.5,29.95,North,-999,0.0,0.0,65,0.00,,,-99.99,WeatherLink 5.4,2013-10-13 00:55:00,
2013-10-12 21:00:00,76.0,63.4,29.95,North,-999,0.0,0.0,65,0.00,,,-99.99,WeatherLink 5.4,2013-10-13 01:00:00,
2013-10-12 21:03:00,76.1,63.5,29.95,North,-999,0.0,0.0,65,0.00,,,-99.99,WeatherLink 5.4,2013-10-13 01:03:00,
2013-10-12 21:05:00,76.0,63.4,29.95,North,-999,0.0,0.0,65,0.00,,,-99.99,WeatherLink 5.4,2013-10-13 01:05:00,
2013-10-12 21:08:00,76.0,63.4,29.95,North,-999,0.0,0.0,65,0.00,,,-99.99,WeatherLink 5.4,2013-10-13 01:08:00,
2013-10-12 21:10:00,75.9,63.3,29.95,North,-999,0.0,0.0,65,0.00,,,-99.99,WeatherLink 5.4,2013-10-13 01:10:00,
2013-10-12 21:13:00,76.0,63.4,29.95,North,-999,0.0,0.0,65,0.00,,,-99.99,WeatherLink 5.4,2013-10-13 01:13:00,
2013-10-12 21:15:00,75.8,63.2,29.95,North,-999,0.0,0.0,65,0.00,,,-99.99,WeatherLink 5.4,2013-10-13 01:15:00,
2013-10-12 21:20:00,75.6,62.6,29.95,North,-999,0.0,0.0,64,0.00,,,-99.99,WeatherLink 5.4,2013-10-13 01:20:00,
2013-10-12 21:23:00,75.8,63.2,29.95,North,-999,0.0,0.0,65,0.00,,,-99.99,WeatherLink 5.4,2013-10-13 01:23:00,
2013-10-12 21:25:00,75.6,62.6,29.95,North,-999,0.0,0.0,64,0.00,,,-99.99,WeatherLink 5.4,2013-10-13 01:25:00,
2013-10-12 21:30:00,75.6,62.6,29.96,North,-999,0.0,0.0,64,0.00,,,-99.99,WeatherLink 5.4,2013-10-13 01:30:00,
2013-10-12 21:33:00,75.6,62.6,29.95,North,-999,0.0,0.0,64,0.00,,,-99.99,WeatherLink 5.4,2013-10-13 01:33:00,
2013-10-12 21:35:00,75.4,62.4,29.96,North,-999,0.0,0.0,64,0.00,,,-99.99,WeatherLink 5.4,2013-10-13 01:35:00,
2013-10-12 21:40:00,75.3,62.7,29.96,North,-999,0.0,0.0,65,0.00,,,-99.99,WeatherLink 5.4,2013-10-13 01:40:00,
2013-10-12 21:43:00,75.4,62.4,29.96,North,-999,0.0,0.0,64,0.00,,,-99.99,WeatherLink 5.4,2013-10-13 01:43:00,
2013-10-12 21:45:00,75.3,62.7,29.96,North,-999,0.0,0.0,65,0.00,,,-99.99,WeatherLink 5.4,2013-10-13 01:45:00,
2013-10-12 21:48:00,75.3,62.7,29.96,North,-999,0.0,0.0,65,0.00,,,-99.99,WeatherLink 5.4,2013-10-13 01:48:00,
2013-10-12 21:50:00,75.3,62.7,29.96,North,-999,0.0,0.0,65,0.00,,,-99.99,WeatherLink 5.4,2013-10-13 01:50:00,
2013-10-12 21:55:00,75.3,62.7,29.96,North,-999,0.0,0.0,65,0.00,,,-99.99,WeatherLink 5.4,2013-10-13 01:55:00,
2013-10-12 21:58:00,75.3,62.7,29.96,North,-999,0.0,0.0,65,0.00,,,-99.99,WeatherLink 5.4,2013-10-13 01:58:00,
2013-10-12 22:00:00,75.3,62.7,29.97,North,-999,0.0,0.0,65,0.00,,,-99.99,WeatherLink 5.4,2013-10-13 02:00:00,
2013-10-12 22:03:00,75.3,62.7,29.96,North,-999,0.0,0.0,65,0.00,,,-99.99,WeatherLink 5.4,2013-10-13 02:03:00,
2013-10-12 22:05:00,75.3,63.2,29.97,North,-999,0.0,0.0,66,0.00,,,-99.99,WeatherLink 5.4,2013-10-13 02:05:00,
2013-10-12 22:08:00,75.3,62.7,29.97,North,-999,0.0,0.0,65,0.00,,,-99.99,WeatherLink 5.4,2013-10-13 02:08:00,
2013-10-12 22:10:00,75.3,63.2,29.97,North,-999,0.0,0.0,66,0.00,,,-99.99,WeatherLink 5.4,2013-10-13 02:10:00,
2013-10-12 22:15:00,75.3,63.2,29.97,North,-999,0.0,0.0,66,0.00,,,-99.99,WeatherLink 5.4,2013-10-13 02:15:00,
2013-10-12 22:18:00,75.3,63.2,29.97,North,-999,0.0,0.0,66,0.00,,,-99.99,WeatherLink 5.4,2013-10-13 02:18:00,
2013-10-12 22:20:00,75.3,63.2,29.97,North,-999,0.0,0.0,66,0.00,,,-99.99,WeatherLink 5.4,2013-10-13 02:20:00,
2013-10-12 22:25:00,75.3,63.2,29.97,North,-999,0.0,0.0,66,0.00,,,-99.99,WeatherLink 5.4,2013-10-13 02:25:00,
2013-10-12 22:28:00,75.3,63.2,29.97,North,-999,0.0,0.0,66,0.00,,,-99.99,WeatherLink 5.4,2013-10-13 02:28:00,
2013-10-12 22:30:00,75.3,62.7,29.97,North,-999,0.0,0.0,65,0.00,,,-99.99,WeatherLink 5.4,2013-10-13 02:30:00,
2013-10-12 22:33:00,75.3,63.2,29.97,North,-999,0.0,0.0,66,0.00,,,-99.99,WeatherLink 5.4,2013-10-13 02:33:00,
2013-10-12 22:35:00,75.2,63.1,29.97,North,-999,0.0,0.0,66,0.00,,,-99.99,WeatherLink 5.4,2013-10-13 02:35:00,
2013-10-12 22:40:00,75.1,63.0,29.97,North,-999,0.0,0.0,66,0.00,,,-99.99,WeatherLink 5.4,2013-10-13 02:40:00,
2013-10-12 22:43:00,75.2,63.1,29.97,North,-999,0.0,0.0,66,0.00,,,-99.99,WeatherLink 5.4,2013-10-13 02:43:00,
2013-10-12 22:45:00,74.9,62.8,29.97,North,-999,0.0,0.0,66,0.00,,,-99.99,WeatherLink 5.4,2013-10-13 02:45:00,
2013-10-12 22:48:00,75.1,63.0,29.97,North,-999,0.0,0.0,66,0.00,,,-99.99,WeatherLink 5.4,2013-10-13 02:48:00,
2013-10-12 22:50:00,74.7,62.6,29.97,North,-999,0.0,0.0,66,0.00,,,-99.99,WeatherLink 5.4,2013-10-13 02:50:00,
2013-10-12 22:55:00,74.5,62.4,29.97,North,-999,0.0,0.0,66,0.00,,,-99.99,WeatherLink 5.4,2013-10-13 02:55:00,
2013-10-12 22:58:00,74.7,62.6,29.97,North,-999,0.0,0.0,66,0.00,,,-99.99,WeatherLink 5.4,2013-10-13 02:58:00,
2013-10-12 23:00:00,74.2,62.5,29.97,North,-999,0.0,0.0,67,0.00,,,-99.99,WeatherLink 5.4,2013-10-13 03:00:00,
2013-10-12 23:03:00,74.5,62.4,29.97,North,-999,0.0,0.0,66,0.00,,,-99.99,WeatherLink 5.4,2013-10-13 03:03:00,
2013-10-12 23:05:00,74.1,62.4,29.97,North,-999,0.0,0.0,67,0.00,,,-99.99,WeatherLink 5.4,2013-10-13 03:05:00,
2013-10-12 23:10:00,73.9,62.2,29.97,North,-999,0.0,0.0,67,0.00,,,-99.99,WeatherLink 5.4,2013-10-13 03:10:00,
2013-10-12 23:13:00,74.1,62.4,29.97,North,-999,0.0,0.0,67,0.00,,,-99.99,WeatherLink 5.4,2013-10-13 03:13:00,
2013-10-12 23:15:00,73.8,62.6,29.97,North,-999,0.0,0.0,68,0.00,,,-99.99,WeatherLink 5.4,2013-10-13 03:15:00,
2013-10-12 23:18:00,73.9,62.2,29.97,North,-999,0.0,0.0,67,0.00,,,-99.99,WeatherLink 5.4,2013-10-13 03:18:00,
2013-10-12 23:20:00,73.6,62.4,29.97,North,-999,0.0,0.0,68,0.00,,,-99.99,WeatherLink 5.4,2013-10-13 03:20:00,
2013-10-12 23:25:00,73.4,62.2,29.97,North,-999,0.0,0.0,68,0.00,,,-99.99,WeatherLink 5.4,2013-10-13 03:25:00,
2013-10-12 23:28:00,73.6,62.4,29.97,North,-999,0.0,0.0,68,0.00,,,-99.99,WeatherLink 5.4,2013-10-13 03:28:00,
2013-10-12 23:30:00,73.2,62.4,29.97,North,-999,0.0,0.0,69,0.00,,,-99.99,WeatherLink 5.4,2013-10-13 03:30:00,
2013-10-12 23:33:00,73.4,62.2,29.97,North,-999,0.0,0.0,68,0.00,,,-99.99,WeatherLink 5.4,2013-10-13 03:33:00,
2013-10-12 23:35:00,73.2,62.4,29.97,North,-999,0.0,0.0,69,0.00,,,-99.99,WeatherLink 5.4,2013-10-13 03:35:00,
2013-10-12 23:40:00,72.9,62.1,29.97,North,-999,0.0,0.0,69,0.00,,,-99.99,WeatherLink 5.4,2013-10-13 03:40:00,
2013-10-12 23:43:00,73.2,62.4,29.97,North,-999,0.0,0.0,69,0.00,,,-99.99,WeatherLink 5.4,2013-10-13 03:43:00,
2013-10-12 23:45:00,72.8,62.0,29.97,North,-999,0.0,0.0,69,0.00,,,-99.99,WeatherLink 5.4,2013-10-13 03:45:00,
2013-10-12 23:50:00,72.7,61.9,29.97,North,-999,0.0,0.0,69,0.00,,,-99.99,WeatherLink 5.4,2013-10-13 03:50:00,
2013-10-12 23:53:00,72.8,62.0,29.97,North,-999,0.0,0.0,69,0.00,,,-99.99,WeatherLink 5.4,2013-10-13 03:53:00,
2013-10-12 23:55:00,72.5,62.2,29.97,North,-999,0.0,0.0,70,0.00,,,-99.99,WeatherLink 5.4,2013-10-13 03:55:00,
2013-10-12 23:58:00,72.7,61.9,29.97,North,-999,0.0,0.0,69,0.00,,,-99.99,WeatherLink 5.4,2013-10-13 03:58:00,